Current weather by "City, St" or "zip code"  
 
Advertise Here

Current Conditions: London, London-Corbin Airport-Magee Field, KY

Overcast


32.0 F

Last Updated on Jan 18 2021, 4:53 am EST
Humidity: 85%
Wind Speed: W 9.2 mph
Barometer 29.89 in
Dewpoint: 28.0 F
Visibility: 10.00 mi
Precip: Trace
Heat Index: NA
Wind Chill: 24 F
Current conditions at:

London, London-Corbin Airport-Magee Field, KY (KLOZ)

Lat: 37.08944 Lon: 84.06861

Local Radar Image active severe weather and emergency alerts image image weather storm and storm spotter reports image weather observation monitoring service image
Local
Radar
Active
Alerts
Storm Reports Obs
Monitoring

Sign-up For Email & Text Message Weather Alert Notification Services


Advertise Here

Observation History for London, London-Corbin Airport-Magee Field, KY


Time Wind
(mph)
Vis
(mi)
Weather Precip (in) Temperature (F) Relative
Humidity
Wind
Chill
(F)
Heat
Index
(F)
Pressure
Air Dwpt altimeter
(in)
sea level
(mb)
Rmks
4:53 am EST W 9.2 10.00 Overcast Trace 32.0 28.0 85% 24 NA 29.89 1012.8
3:53 am EST SW 5.8 5.00 Light Snow Fog/Mist 00.01 31.0 28.0 89% 25 NA 29.87 1012.3
2:53 am EST W 5.8 1.75 Light Snow Fog/Mist Trace 31.0 28.0 89% 25 NA 29.87 1012.1
1:53 am EST N 0.0 10.00 Overcast -- 31.0 24.1 76% NA NA 29.85 1011.5
12:53 am EST SW 5.8 10.00 Fair -- 32.0 24.1 73% 26 NA 29.85 1011.2
11:53 pm EST SW 4.6 10.00 Fair -- 33.0 25.0 72% 29 NA 29.86 1011.7
10:53 pm EST W 8.1 10.00 Overcast Trace 34.0 27.0 76% 27 NA 29.85 1011.5
9:53 pm EST W 6.9 10.00 Overcast Trace 34.0 28.9 82% 28 NA 29.84 1011.2
8:53 pm EST W 5.8 10.00 Overcast -- 36.0 28.9 76% 31 NA 29.82 1010.6
7:53 pm EST N 0.0 10.00 Overcast -- 36.0 28.9 76% NA NA 29.82 1010.3
6:53 pm EST N 0.0 10.00 Mostly Cloudy -- 37.0 28.9 73% NA NA 29.82 1010.2
5:53 pm EST NW 3.5 10.00 Overcast -- 37.0 28.9 73% NA NA 29.80 1009.8
4:53 pm EST W 5.8 10.00 Overcast Trace 38.0 28.9 70% 34 NA 29.79 1009.4
3:53 pm EST W 15.0 10.00 Light Rain Trace 38.0 30.0 73% 29 NA 29.79 1009.3
2:53 pm EST W 8.1 10.00 Overcast -- 40.0 26.1 58% 35 NA 29.77 1008.6
1:53 pm EST SW 8.1 10.00 Overcast -- 39.0 26.1 60% 33 NA 29.78 1008.9
12:53 pm EST W 16.1 10.00 Overcast -- 39.0 27.0 62% 30 NA 29.80 1009.6
11:53 am EST SW 11.5 G 19.6 10.00 Overcast -- 37.0 27.0 67% 29 NA 29.83 1010.6
10:53 am EST SW 12.7 G 21.9 10.00 Overcast -- 37.0 27.0 67% 29 NA 29.85 1011.5
9:53 am EST S 6.9 10.00 Overcast -- 35.0 28.9 78% 29 NA 29.85 1011.5
8:53 am EST S 5.8 10.00 Overcast -- 34.0 28.0 79% 29 NA 29.85 1011.4
7:53 am EST SW 9.2 10.00 Overcast -- 35.0 27.0 72% 28 NA 29.84 1011.3
6:53 am EST SW 5.8 10.00 Overcast -- 34.0 27.0 76% 29 NA 29.85 1011.4
5:53 am EST SW 5.8 10.00 Overcast -- 34.0 27.0 76% 29 NA 29.84 1011.0

Regional Weather Observation


Somerset, Somerset-Pulaski County - J.T. Wilson Field Airport, KY (KSME)

Overcast
32.0 F

Central Kentucky Regional Airport, KY (KRGA)

Overcast
32.0 F

Madison Airport, KY (KI39)

Fair
84.0 F

Stuart Powell Field Airport, KY (KDVK)

Overcast
32.0 F

Williamsburg-Whitley County Airport, KY (KBYL)

Overcast
32.0 F

Monticello, Wayne County Airport, KY (KEKQ)

Light Rain
33.0 F